Location: Houhaj�rvi
(61.2833°N, 23.0000°E)
Time: 14:57:28
(UTC+00:00)

Cosmos 1814 Rocket - Pass Details

Date: 27 February 2020
Orbit: 744 x 788 km, 74.1° (Epoch: 27 March)

Event Time Altitude Azimuth Distance (km) Brightness Sun altitude
Rises 18:58:22 0° 205° (SSW) 3,181 7.2 -23.3°
Reaches altitude 10° 19:00:43 10° 204° (SSW) 2,263 6.4 -23.6°
Maximum altitude 19:05:49 76° 120° (ESE) 778 3.8 -24.1°
Drops below altitude 10° 19:11:01 10° 35° (NE) 2,293 6.4 -24.6°
Sets 19:13:24 0° 35° (NE) 3,228 7.2 -24.9°
